| time (UTC) | temp F | wind direction | speed MPH | gust MPH | rain 1hr in | rain 24hr in | rain mn in | humidity % | barometer mb |
| 20260904111840 | 50 | 0.0 | 0.0 | 0.00 | 0.05 | 0.00 | 91 | 1010.2 | |
| 20260904110834 | 50 | 0.0 | 0.0 | 0.00 | 0.07 | 0.00 | 91 | 1010.2 | |
| 20260904105752 | 50 | 0.0 | 0.0 | 0.00 | 0.07 | 0.00 | 91 | 1010.2 | |
| 20260904104646 | 51 | 0.0 | 0.0 | 0.00 | 0.07 | 0.00 | 91 | 1010.1 | |
| 20260904103714 | 51 | 0.0 | 0.0 | 0.00 | 0.07 | 0.00 | 91 | 1010.1 | |
| 20260904102646 | 51 | 0.0 | 0.0 | 0.00 | 0.07 | 0.00 | 91 | 1010.1 | |
| 20260904101546 | 51 | 0.0 | 0.0 | 0.00 | 0.07 | 0.00 | 91 | 1009.9 | |
| 20260904100601 | 51 | 0.0 | 0.0 | 0.00 | 0.07 | 0.00 | 92 | 1009.9 | |
| 20260904095452 | 51 | 0.0 | 0.0 | 0.00 | 0.07 | 0.00 | 92 | 1009.7 | |
| 20260904094505 | 52 | 0.0 | 0.0 | 0.00 | 0.07 | 0.00 | 92 | 1009.8 | |
| 20260904093335 | 52 | 0.0 | 0.0 | 0.00 | 0.07 | 0.00 | 91 | 1009.8 | |
| 20260904092424 | 52 | 0.0 | 0.0 | 0.00 | 0.07 | 0.00 | 91 | 1009.9 | |
| 20260904092235 | 52 | 0.0 | 0.0 | 0.00 | 0.07 | 0.00 | 92 | 1009.9 | |
| 20260904091100 | 52 | 0.0 | 0.0 | 0.00 | 0.07 | 0.00 | 92 | 1009.9 | |
| 20260904090116 | 52 | 0.0 | 0.0 | 0.00 | 0.07 | 0.00 | 92 | 1009.9 | |
| 20260904085944 | 52 | 0.0 | 0.0 | 0.00 | 0.07 | 0.00 | 92 | 1009.9 | |
| 20260904085028 | 52 | 0.0 | 0.0 | 0.00 | 0.07 | 0.00 | 92 | 1009.9 | |
| 20260904083949 | 52 | 0.0 | 0.0 | 0.00 | 0.07 | 0.00 | 93 | 1009.8 | |
| 20260904082910 | 52 | 0.0 | 0.0 | 0.00 | 0.07 | 0.00 | 92 | 1009.9 | |
| 20260904081837 | 52 | 0.0 | 0.0 | 0.00 | 0.07 | 0.00 | 92 | 1009.9 | |
| 20260904080908 | 52 | 0.0 | 0.0 | 0.00 | 0.07 | 0.00 | 91 | 1009.9 | |
| 20260904075833 | 52 | 0.0 | 0.0 | 0.00 | 0.07 | 0.00 | 91 | 1009.6 | |
| 20260904074725 | 52 | 0.0 | 0.0 | 0.00 | 0.07 | 0.00 | 91 | 1009.6 | |
| 20260904073701 | 53 | 0.0 | 0.0 | 0.00 | 0.07 | 0.00 | 91 | 1009.7 | |
| 20260904072527 | 53 | 0.0 | 0.0 | 0.00 | 0.07 | 0.00 | 92 | 1009.9 | |
| 20260904071501 | 53 | 0.0 | 0.0 | 0.00 | 0.07 | 0.00 | 92 | 1009.9 | |
| 20260904070420 | 53 | 0.0 | 0.0 | 0.00 | 0.07 | 0.00 | 91 | 1010.0 | |
| 20260904065406 | 53 | 0.0 | 0.0 | 0.00 | 0.07 | 0.00 | 91 | 1009.8 | |
| 20260904064358 | 53 | 0.0 | 0.0 | 0.00 | 0.07 | 0.00 | 91 | 1009.8 | |
| 20260904063332 | 53 | 0.0 | 0.0 | 0.00 | 0.07 | 0.00 | 91 | 1009.9 | |
| 20260904062251 | 53 | 0.0 | 0.0 | 0.00 | 0.07 | 0.00 | 90 | 1009.9 | |
| 20260904061210 | 53 | 0.0 | 0.0 | 0.00 | 0.07 | 0.00 | 90 | 1009.7 | |
| 20260904060229 | 53 | 0.0 | 0.0 | 0.00 | 0.07 | 0.00 | 90 | 1009.7 | |
| 20260904055221 | 53 | 0.0 | 0.0 | 0.00 | 0.06 | 0.00 | 90 | 1009.7 | |
| 20260904054130 | 54 | 0.0 | 0.0 | 0.00 | 0.06 | 0.00 | 89 | 1009.8 | |
| 20260904053053 | 54 | 0.0 | 0.0 | 0.00 | 0.06 | 0.00 | 88 | 1009.6 | |
| 20260904052759 | 54 | 0.0 | 0.0 | 0.00 | 0.06 | 0.00 | 88 | 1009.6 | |
| 20260904052118 | 54 | 0.0 | 0.0 | 0.00 | 0.06 | 0.00 | 88 | 1009.6 | |
| 20260904051133 | 54 | 0.0 | 0.0 | 0.00 | 0.06 | 0.00 | 88 | 1009.7 | |
| 20260904050050 | 54 | 0.0 | 0.0 | 0.00 | 0.06 | 0.00 | 86 | 1009.6 | |
| 20260904044950 | 54 | 0.0 | 0.0 | 0.00 | 0.06 | 0.00 | 87 | 1009.7 | |
| 20260904043929 | 55 | 0.0 | 0.0 | 0.00 | 0.05 | 0.00 | 85 | 1009.8 | |
| 20260904042856 | 55 | 0.0 | 0.0 | 0.00 | 0.05 | 0.00 | 84 | 1009.8 | |
| 20260904041800 | 55 | 0.0 | 0.0 | 0.00 | 0.05 | 0.00 | 84 | 1009.8 | |
| 20260904040742 | 55 | 0.0 | 0.0 | 0.00 | 0.05 | 0.00 | 84 | 1009.6 | |
| 20260904035610 | 55 | 0.0 | 0.0 | 0.00 | 0.05 | 0.00 | 84 | 1009.6 | |
| 20260904034514 | 55 | 0.0 | 0.0 | 0.00 | 0.05 | 0.00 | 84 | 1009.5 | |
| 20260904033413 | 55 | 0.0 | 0.0 | 0.00 | 0.05 | 0.00 | 82 | 1009.4 | |
| 20260904032422 | 56 | 0.0 | 0.0 | 0.00 | 0.05 | 0.00 | 82 | 1009.2 | |
| 20260904031426 | 56 | 0.0 | 0.0 | 0.00 | 0.05 | 0.00 | 81 | 1009.0 | |
| 20260904030456 | 56 | 0.0 | 0.0 | 0.00 | 0.05 | 0.00 | 80 | 1009.0 | |
| 20260904025358 | 57 | 0.0 | 0.0 | 0.00 | 0.05 | 0.00 | 79 | 1009.0 | |
| 20260904024259 | 57 | 0.0 | 0.0 | 0.00 | 0.05 | 0.00 | 79 | 1008.9 | |
| 20260904023305 | 57 | 0.0 | 0.0 | 0.00 | 0.05 | 0.00 | 76 | 1008.9 | |
| 20260904022238 | 58 | 0.0 | 0.0 | 0.00 | 0.05 | 0.00 | 75 | 1008.9 | |
| 20260904021102 | 58 | 0.0 | 0.0 | 0.00 | 0.05 | 0.00 | 74 | 1008.6 | |
| 20260904020122 | 59 | 0.0 | 0.0 | 0.00 | 0.05 | 0.00 | 74 | 1008.7 | |
| 20260904015001 | 59 | 0.0 | 0.0 | 0.00 | 0.05 | 0.00 | 75 | 1008.6 | |
| 20260904013827 | 60 | 0.0 | 0.0 | 0.00 | 0.05 | 0.00 | 73 | 1008.4 | |
| 20260904012748 | 60 | 0.0 | 0.0 | 0.00 | 0.05 | 0.00 | 73 | 1008.5 | |
| 20260904011743 | 61 | 0.0 | 0.0 | 0.00 | 0.05 | 0.00 | 74 | 1008.4 | |
| 20260904010614 | 61 | 0.0 | 0.0 | 0.00 | 0.07 | 0.00 | 73 | 1008.3 | |
| 20260904005626 | 62 | 0.0 | 0.0 | 0.00 | 0.16 | 0.00 | 73 | 1008.4 | |
| 20260904004550 | 63 | 0.0 | 0.0 | 0.00 | 0.16 | 0.00 | 71 | 1008.3 | |
| 20260904003622 | 64 | 0.0 | 0.0 | 0.00 | 0.16 | 0.00 | 67 | 1008.3 | |
| 20260904002630 | 64 | 0.0 | 0.0 | 0.00 | 0.16 | 0.00 | 65 | 1008.2 | |
| 20260904001528 | 64 | 0.0 | 0.0 | 0.00 | 0.16 | 0.00 | 63 | 1008.2 | |
| 20260904000412 | 63 | 0.0 | 0.0 | 0.00 | 0.16 | 0.00 | 64 | 1008.2 | |
| 20260903235346 | 62 | 0.0 | 0.0 | 0.00 | 0.16 | 0.00 | 66 | 1008.3 | |
| 20260903234205 | 62 | 0.0 | 0.0 | 0.00 | 0.16 | 0.00 | 67 | 1008.3 | |
| 20260903233135 | 62 | 0.0 | 0.0 | 0.00 | 0.16 | 0.00 | 66 | 1008.3 | |
| 20260903232159 | 62 | 0.0 | 0.0 | 0.00 | 0.17 | 0.00 | 69 | 1008.3 | |
| 20260903231055 | 61 | 0.0 | 0.0 | 0.00 | 0.19 | 0.00 | 70 | 1008.4 | |
| 20260903225952 | 61 | 0.0 | 0.0 | 0.00 | 0.20 | 0.00 | 72 | 1008.4 | |
| 20260903224954 | 61 | 0.0 | 0.0 | 0.00 | 0.21 | 0.00 | 71 | 1008.4 | |
| 20260903223912 | 61 | 0.0 | 0.0 | 0.00 | 0.22 | 0.00 | 72 | 1008.5 | |
| 20260903222932 | 61 | 0.0 | 0.0 | 0.00 | 0.23 | 0.00 | 70 | 1008.5 | |
| 20260903221817 | 62 | 0.0 | 0.0 | 0.00 | 0.23 | 0.00 | 69 | 1008.6 | |
| 20260903220842 | 62 | 0.0 | 0.0 | 0.00 | 0.24 | 0.00 | 66 | 1008.6 | |
| 20260903215825 | 63 | 0.0 | 0.0 | 0.00 | 0.25 | 0.00 | 64 | 1008.5 | |
| 20260903214856 | 64 | 0.0 | 0.0 | 0.00 | 0.25 | 0.00 | 62 | 1008.3 | |
| 20260903213845 | 64 | 0.0 | 0.0 | 0.00 | 0.26 | 0.00 | 61 | 1008.2 | |
| 20260903212811 | 64 | 0.0 | 0.0 | 0.00 | 0.26 | 0.00 | 60 | 1008.1 | |
| 20260903211822 | 64 | 0.0 | 0.0 | 0.00 | 0.27 | 0.00 | 60 | 1008.1 | |
| 20260903210650 | 63 | 0.0 | 0.0 | 0.00 | 0.27 | 0.00 | 61 | 1008.0 | |
| 20260903205506 | 63 | 0.0 | 0.0 | 0.00 | 0.27 | 0.00 | 62 | 1008.0 | |
| 20260903204341 | 62 | 0.0 | 0.0 | 0.00 | 0.27 | 0.00 | 62 | 1008.0 | |
| 20260903203239 | 63 | 0.0 | 0.0 | 0.00 | 0.27 | 0.00 | 61 | 1008.0 | |
| 20260903202221 | 63 | 0.0 | 0.0 | 0.00 | 0.27 | 0.00 | 59 | 1008.1 | |
| 20260903201148 | 62 | 0.0 | 0.0 | 0.00 | 0.27 | 0.00 | 61 | 1008.2 | |
| 20260903200043 | 61 | 0.0 | 0.0 | 0.00 | 0.27 | 0.00 | 63 | 1008.2 | |
| 20260903194913 | 61 | 0.0 | 0.0 | 0.00 | 0.27 | 0.00 | 65 | 1008.2 | |
| 20260903193927 | 61 | 0.0 | 0.0 | 0.00 | 0.27 | 0.00 | 64 | 1008.2 | |
| 20260903192819 | 60 | 0.0 | 0.0 | 0.00 | 0.27 | 0.00 | 66 | 1008.2 | |
| 20260903191854 | 60 | 0.0 | 0.0 | 0.00 | 0.27 | 0.00 | 66 | 1008.1 | |
| 20260903190907 | 60 | 0.0 | 0.0 | 0.00 | 0.27 | 0.00 | 66 | 1008.1 | |
| 20260903185922 | 60 | 0.0 | 0.0 | 0.00 | 0.27 | 0.00 | 64 | 1008.1 | |
| 20260903184958 | 60 | 0.0 | 0.0 | 0.00 | 0.27 | 0.00 | 64 | 1008.0 | |
| 20260903184010 | 60 | 0.0 | 0.0 | 0.00 | 0.27 | 0.00 | 65 | 1008.1 | |
| 20260903183033 | 60 | 0.0 | 0.0 | 0.00 | 0.27 | 0.00 | 69 | 1008.1 | |
| 20260903181958 | 59 | 0.0 | 0.0 | 0.00 | 0.27 | 0.00 | 70 | 1008.1 | |
| 20260903180919 | 58 | 0.0 | 0.0 | 0.00 | 0.27 | 0.00 | 69 | 1008.0 | |
| 20260903175928 | 58 | 0.0 | 0.0 | 0.00 | 0.27 | 0.00 | 70 | 1007.9 | |
| 20260903174842 | 57 | 0.0 | 0.0 | 0.00 | 0.27 | 0.00 | 72 | 1007.9 | |
| 20260903173842 | 56 | 0.0 | 0.0 | 0.00 | 0.27 | 0.00 | 73 | 1008.0 | |
| 20260903172706 | 56 | 0.0 | 0.0 | 0.00 | 0.27 | 0.00 | 73 | 1007.9 | |
| 20260903171529 | 56 | 0.0 | 0.0 | 0.00 | 0.27 | 0.00 | 75 | 1007.9 | |
| 20260903170356 | 55 | 0.0 | 0.0 | 0.00 | 0.27 | 0.00 | 77 | 1007.9 | |
| 20260903165357 | 55 | 0.0 | 0.0 | 0.00 | 0.27 | 0.00 | 76 | 1007.9 | |
| 20260903164425 | 55 | 0.0 | 0.0 | 0.00 | 0.27 | 0.00 | 78 | 1007.9 | |
| 20260903163335 | 54 | 0.0 | 0.0 | 0.00 | 0.27 | 0.00 | 77 | 1008.1 | |
| 20260903162245 | 54 | 0.0 | 0.0 | 0.00 | 0.27 | 0.00 | 79 | 1008.1 | |
| 20260903161319 | 54 | 0.0 | 0.0 | 0.00 | 0.27 | 0.00 | 81 | 1008.2 | |
| 20260903160202 | 53 | 0.0 | 0.0 | 0.00 | 0.27 | 0.00 | 82 | 1008.2 | |
| 20260903155128 | 53 | 0.0 | 0.0 | 0.00 | 0.27 | 0.00 | 84 | 1008.1 | |
| 20260903154046 | 52 | 0.0 | 0.0 | 0.00 | 0.27 | 0.00 | 84 | 1008.2 | |
| 20260903153001 | 52 | 0.0 | 0.0 | 0.00 | 0.27 | 0.00 | 86 | 1008.1 | |
| 20260903151952 | 52 | 0.0 | 0.0 | 0.00 | 0.27 | 0.00 | 87 | 1008.1 | |
| 20260903150952 | 52 | 0.0 | 0.0 | 0.00 | 0.27 | 0.00 | 88 | 1008.3 | |
| 20260903145859 | 51 | 0.0 | 0.0 | 0.00 | 0.27 | 0.00 | 87 | 1008.3 | |
| 20260903144931 | 51 | 0.0 | 0.0 | 0.00 | 0.27 | 0.00 | 89 | 1008.4 | |
| 20260903143824 | 51 | 0.0 | 0.0 | 0.01 | 0.26 | 0.00 | 88 | 1008.1 | |
| 20260903142649 | 51 | 0.0 | 0.0 | 0.02 | 0.26 | 0.00 | 89 | 1008.1 | |
| 20260903141618 | 51 | 0.0 | 0.0 | 0.02 | 0.26 | 0.00 | 89 | 1007.9 | |
| 20260903140554 | 51 | 0.0 | 0.0 | 0.02 | 0.26 | 0.00 | 89 | 1008.0 | |
| 20260903135420 | 51 | 0.0 | 0.0 | 0.03 | 0.26 | 0.00 | 90 | 1008.0 | |
| 20260903134347 | 51 | 0.0 | 0.0 | 0.01 | 0.25 | 0.00 | 89 | 1008.0 | |
| 20260903133401 | 51 | 0.0 | 0.0 | 0.00 | 0.24 | 0.00 | 89 | 1008.0 | |
| 20260903132335 | 51 | 0.0 | 0.0 | 0.00 | 0.24 | 0.00 | 90 | 1007.8 | |
| 20260903131248 | 51 | 0.0 | 0.0 | 0.00 | 0.24 | 0.00 | 88 | 1007.7 | |
| 20260903130243 | 51 | 0.0 | 0.0 | 0.00 | 0.24 | 0.00 | 86 | 1007.7 | |
| 20260903125132 | 51 | 0.0 | 0.0 | 0.00 | 0.23 | 0.00 | 84 | 1007.6 | |
| 20260903124156 | 51 | 0.0 | 0.0 | 0.00 | 0.23 | 0.00 | 85 | 1007.5 | |
| 20260903123059 | 52 | 0.0 | 0.0 | 0.00 | 0.23 | 0.00 | 84 | 1007.3 | |
| 20260903121925 | 52 | 0.0 | 0.0 | 0.00 | 0.23 | 0.00 | 84 | 1007.1 | |
| 20260903120838 | 52 | 0.0 | 0.0 | 0.01 | 0.23 | 0.00 | 84 | 1007.2 | |
| 20260903115722 | 52 | 0.0 | 0.0 | 0.01 | 0.23 | 0.00 | 84 | 1007.0 | |
| 20260903114556 | 52 | 0.0 | 0.0 | 0.01 | 0.23 | 0.00 | 84 | 1007.1 | |
| 20260903113510 | 52 | 0.0 | 0.0 | 0.01 | 0.23 | 0.00 | 82 | 1007.2 |